Location: Dittelbrunn
(50.0738°N, 10.2196°E)
Time: 23:27:42
(UTC+00:00)

USA 234 - Pass Details

Date: 18 September 2020
Orbit: 1102 x 1106 km, 123.0° (Epoch: 16 October)

Event Time Altitude Azimuth Distance (km) Brightness Sun altitude
Rises 18:33:02 0° 59° (ENE) 3,928 5.8 -11.5°
Reaches altitude 10° 18:35:54 10° 70° (ENE) 2,967 5.1 -12.0°
Maximum altitude 18:41:32 30° 129° (SE) 1,865 4.0 -12.8°
Drops below altitude 10° 18:47:08 10° 189° (S) 2,956 5.4 -13.7°
Sets 18:49:58 0° 199° (SSW) 3,911 6.2 -14.1°
